Ft. Stewart, GA

11:03 AM EDT on April 29, 2017 (GMT -0400)
Wright Army Air Field

Weather History for KLHW - January, 2013

Change the Weather History Date:

Friday, January 11, 2013

  Actual Average Record
Temperature  
Mean Temperature 65 °F -  
Max Temperature 77 °F 58 °F 79 °F (1972)
Min Temperature 53 °F 38 °F 12 °F (1982)
Growing Degree Days 15 (Base 50)    
Moisture  
Dew Point 60 °F    
Average Humidity 97    
Maximum Humidity 100    
Minimum Humidity 56    
Precipitation  
Precipitation 0.00 in - - ()
Sea Level Pressure  
Sea Level Pressure 30.24 in    
Wind  
Wind Speed 3 mph (ESE)    
Max Wind Speed 6 mph    
Max Gust Speed -    
Visibility 3 miles    
Events Fog    
Averages and records for this station are not official NWS values.
T = Trace of Precipitation, MM = Missing Value Source: NWS Daily Summary

Daily Weather History Graph

Daily Weather History Graph

Search for Another Location

Airport or City:

Trip Planner

Search our weather history database for the weather conditions in past years. The results will help you decide how hot, cold, wet, or windy it might be!

Date:

Astronomy

Jan. 11, 2013 Rise Set
Actual Time 7:27 AM EST 5:41 PM EST
Civil Twilight 7:00 AM EST 6:08 PM EST
Nautical Twilight 6:30 AM EST 6:38 PM EST
Astronomical Twilight 6:01 AM EST 7:07 PM EST
Moon 7:01 AM EST (1/11) 5:54 PM EST (1/11)
Length of Visible Light 11h 07m
Length of Day
10h 14m
Waning Crescent, 0% of the Moon is Illuminated
Jan 11
Waning Crescent
Jan 11
New
Jan 18
First Quarter
Jan 26
Full
Feb 3
Last Quarter

Hourly Weather History & Observations

Time (EST) Temp. Dew Point Humidity Pressure Visibility Wind Dir Wind Speed Gust Speed Precip Events Conditions
12:06 AM 62.6 °F 62.6 °F 100% 30.31 in 1.8 mi East 4.6 mph - N/A   Overcast
12:10 AM 62.6 °F 62.6 °F 100% 30.31 in 1.5 mi ESE 4.6 mph - N/A   Overcast
12:17 AM 60.8 °F 60.8 °F 100% 30.31 in 1.2 mi ESE 5.8 mph - N/A   Overcast
12:22 AM 60.8 °F 60.8 °F 100% 30.31 in 1.0 mi ESE 5.8 mph - N/A   Mist
12:26 AM 60.8 °F 60.8 °F 100% 30.31 in 1.0 mi East 5.8 mph - N/A   Mist
12:30 AM 60.8 °F 60.8 °F 100% 30.31 in 0.8 mi East 5.8 mph - N/A   Mist
12:55 AM 61.2 °F 61.2 °F 100% 30.30 in 0.8 mi ESE 5.8 mph - N/A   Mist
1:43 AM 60.8 °F 60.8 °F 100% 30.29 in 0.5 mi ESE 3.5 mph - N/A Fog Fog
1:55 AM 60.6 °F 60.6 °F 100% 30.29 in 0.5 mi East 5.8 mph - N/A Fog Fog
2:03 AM 60.8 °F 60.8 °F 100% 30.29 in 0.8 mi East 3.5 mph - N/A   Mist
2:32 AM 60.8 °F 60.8 °F 100% 30.29 in 0.8 mi ESE 5.8 mph - N/A   Mist
2:34 AM 60.8 °F 60.8 °F 100% 30.29 in 1.0 mi East 4.6 mph - N/A   Mist
2:37 AM 60.8 °F 60.8 °F 100% 30.28 in 1.2 mi ESE 5.8 mph - N/A   Overcast
2:39 AM 60.8 °F 60.8 °F 100% 30.28 in 1.5 mi East 5.8 mph - N/A   Overcast
2:40 AM 60.8 °F 60.8 °F 100% 30.28 in 1.8 mi East 5.8 mph - N/A   Overcast
2:42 AM 60.8 °F 60.8 °F 100% 30.28 in 2.0 mi ESE 5.8 mph - N/A   Overcast
2:45 AM 60.8 °F 60.8 °F 100% 30.28 in 3.0 mi ESE 5.8 mph - N/A   Overcast
2:48 AM 60.8 °F 60.8 °F 100% 30.28 in 4.0 mi ESE 5.8 mph - N/A   Overcast
2:55 AM 60.3 °F 60.3 °F 100% 30.27 in 6.0 mi ESE 5.8 mph - N/A   Mostly Cloudy
3:06 AM 60.8 °F 60.8 °F 100% 30.27 in 8.0 mi ESE 5.8 mph - N/A   Mostly Cloudy
3:16 AM 60.8 °F 60.8 °F 100% 30.26 in 9.0 mi ESE 5.8 mph - N/A   Partly Cloudy
3:55 AM 59.5 °F 59.5 °F 100% 30.25 in 9.0 mi ESE 4.6 mph - N/A   Clear
4:31 AM 59.0 °F 59.0 °F 100% 30.24 in 2.5 mi Calm Calm - N/A   Clear
4:33 AM 59.0 °F 59.0 °F 100% 30.24 in 2.0 mi Calm Calm - N/A   Clear
4:35 AM 59.0 °F 59.0 °F 100% 30.24 in 1.8 mi Calm Calm - N/A   Clear
4:36 AM 59.0 °F 59.0 °F 100% 30.24 in 1.5 mi Calm Calm - N/A   Clear
4:38 AM 59.0 °F 59.0 °F 100% 30.24 in 1.2 mi Calm Calm - N/A   Clear
4:41 AM 59.0 °F 59.0 °F 100% 30.24 in 1.0 mi Calm Calm - N/A   Clear
4:44 AM 59.0 °F 59.0 °F 100% 30.24 in 0.8 mi Calm Calm - N/A   Clear
4:46 AM 57.2 °F 57.2 °F 100% 30.24 in 0.8 mi Calm Calm - N/A   Clear
4:48 AM 57.2 °F 57.2 °F 100% 30.24 in 0.5 mi Calm Calm - N/A Fog Fog
4:55 AM 56.5 °F 56.5 °F 100% 30.24 in 0.5 mi Calm Calm - N/A Fog Fog
5:16 AM 55.4 °F 55.4 °F 100% 30.24 in 0.2 mi Calm Calm - N/A Fog Fog
5:55 AM 56.1 °F 56.1 °F 100% 30.24 in 0.2 mi Calm Calm - N/A Fog Fog
6:24 AM 55.4 °F 55.4 °F 100% 30.24 in 0.8 mi Calm Calm - N/A   Clear
6:31 AM 55.4 °F 55.4 °F 100% 30.25 in 0.5 mi Calm Calm - N/A Fog Fog
6:55 AM 54.0 °F 54.0 °F 100% 30.24 in 0.5 mi Calm Calm - N/A Fog Fog
7:29 AM 53.6 °F 53.6 °F 100% 30.25 in 0.2 mi Calm Calm - N/A Fog Fog
7:51 AM 53.6 °F 53.6 °F 100% 30.26 in 0.2 mi Calm Calm - N/A Fog Fog
7:55 AM 54.0 °F 54.0 °F 100% 30.26 in 0.2 mi Calm Calm - N/A Fog Fog
8:04 AM 53.6 °F 53.6 °F 100% 30.25 in 0.8 mi Calm Calm - N/A   Clear
8:07 AM 53.6 °F 53.6 °F 100% 30.25 in 0.8 mi Calm Calm - N/A   Clear
8:08 AM 55.4 °F 55.4 °F 100% 30.25 in 0.8 mi Calm Calm - N/A   Clear
8:10 AM 55.4 °F 55.4 °F 100% 30.25 in 1.0 mi Calm Calm - N/A   Clear
8:12 AM 55.4 °F 55.4 °F 100% 30.25 in 1.2 mi Calm Calm - N/A   Clear
8:14 AM 55.4 °F 55.4 °F 100% 30.25 in 1.8 mi Calm Calm - N/A   Clear
8:15 AM 55.4 °F 55.4 °F 100% 30.25 in 2.0 mi Calm Calm - N/A   Clear
8:17 AM 55.4 °F 55.4 °F 100% 30.25 in 3.0 mi Calm Calm - N/A   Clear
8:55 AM 60.1 °F 60.1 °F 100% 30.26 in 10.0 mi Calm Calm - N/A   Clear
9:55 AM 64.6 °F 64.6 °F 100% 30.27 in 10.0 mi Calm Calm - N/A   Clear
10:55 AM 67.8 °F 67.8 °F 100% 30.27 in 10.0 mi South 3.5 mph - N/A   Clear
11:55 AM 73.9 °F 63.9 °F 71% 30.24 in 10.0 mi Variable 3.5 mph - N/A   Clear
12:55 PM 77.2 °F 61.0 °F 57% 30.22 in 10.0 mi Calm Calm - N/A   Scattered Clouds
1:55 PM 76.5 °F 59.9 °F 56% 30.19 in 10.0 mi Calm Calm - N/A   Scattered Clouds
2:55 PM 75.7 °F 60.6 °F 59% 30.18 in 10.0 mi Calm Calm - N/A   Mostly Cloudy
3:55 PM 75.7 °F 62.1 °F 62% 30.18 in 10.0 mi Calm Calm - N/A   Mostly Cloudy
4:55 PM 73.4 °F 64.9 °F 75% 30.17 in 10.0 mi Calm Calm - N/A   Mostly Cloudy
5:55 PM 68.7 °F 64.4 °F 86% 30.18 in 10.0 mi Calm Calm - N/A   Clear
6:28 PM 68.0 °F 64.4 °F 88% 30.18 in 6.0 mi Calm Calm - N/A   Clear
6:55 PM 65.1 °F 63.5 °F 94% 30.19 in 6.0 mi ESE 4.6 mph - N/A   Clear
7:55 PM 64.6 °F 64.2 °F 99% 30.19 in 5.0 mi Calm Calm - N/A   Mostly Cloudy
8:14 PM 64.4 °F 64.4 °F 100% 30.19 in 5.0 mi SE 3.5 mph - N/A   Overcast
8:55 PM 64.9 °F 64.9 °F 100% 30.20 in 10.0 mi SSE 4.6 mph - N/A   Mostly Cloudy
9:55 PM 64.4 °F 64.4 °F 100% 30.20 in 10.0 mi Calm Calm - N/A   Clear
10:15 PM 62.6 °F 62.6 °F 100% 30.20 in 2.5 mi Calm Calm - N/A   Clear
10:16 PM 62.6 °F 62.6 °F 100% 30.20 in 1.8 mi Calm Calm - N/A   Clear
10:17 PM 62.6 °F 62.6 °F 100% 30.20 in 1.2 mi Calm Calm - N/A   Clear
10:18 PM 62.6 °F 62.6 °F 100% 30.20 in 1.0 mi Calm Calm - N/A   Clear
10:19 PM 62.6 °F 62.6 °F 100% 30.20 in 0.8 mi Calm Calm - N/A   Clear
10:21 PM 62.6 °F 62.6 °F 100% 30.20 in 0.5 mi Calm Calm - N/A Fog Fog
10:24 PM 62.6 °F 62.6 °F 100% 30.20 in 0.5 mi Calm Calm - N/A Fog Fog
10:36 PM 62.6 °F 62.6 °F 100% 30.19 in 0.8 mi SSE 3.5 mph - N/A   Clear
10:37 PM 62.6 °F 62.6 °F 100% 30.19 in 0.8 mi SE 3.5 mph - N/A   Clear
10:39 PM 62.6 °F 62.6 °F 100% 30.19 in 1.0 mi SSE 3.5 mph - N/A   Clear
10:40 PM 62.6 °F 62.6 °F 100% 30.20 in 1.0 mi SSE 3.5 mph - N/A   Clear
10:41 PM 62.6 °F 62.6 °F 100% 30.19 in 1.2 mi SSE 3.5 mph - N/A   Clear
10:42 PM 62.6 °F 62.6 °F 100% 30.19 in 1.5 mi SSE 3.5 mph - N/A   Clear
10:43 PM 62.6 °F 62.6 °F 100% 30.19 in 2.0 mi Calm Calm - N/A   Clear
10:45 PM 62.6 °F 62.6 °F 100% 30.19 in 3.0 mi SSE 3.5 mph - N/A   Clear
10:51 PM 62.6 °F 62.6 °F 100% 30.19 in 9.0 mi Calm Calm - N/A   Clear
10:55 PM 63.5 °F 63.5 °F 100% 30.19 in 9.0 mi Calm Calm - N/A   Clear
11:21 PM 64.4 °F 64.4 °F 100% 30.19 in 7.0 mi Calm Calm - N/A   Clear
11:35 PM 62.6 °F 62.6 °F 100% 30.19 in 2.5 mi South 3.5 mph - N/A   Clear
11:37 PM 62.6 °F 62.6 °F 100% 30.19 in 2.5 mi Calm Calm - N/A   Clear
11:42 PM 62.6 °F 62.6 °F 100% 30.19 in 3.0 mi Calm Calm - N/A   Clear
11:53 PM 62.6 °F 62.6 °F 100% 30.19 in 2.5 mi Calm Calm - N/A   Clear
11:55 PM 63.0 °F 63.0 °F 100% 30.19 in 2.5 mi Calm Calm - N/A   Clear